{"data":{"norad_id":52311,"epoch":"2026-09-19T18:52:08.728896Z","epoch_age_seconds":121322,"freshness":"FRESH","line1":"1 52311U 22041BC  26262.78621214  .00000750  00000+0  34143-4 0  9990","line2":"2 52311  53.1592 285.2899 0001106  86.0573 274.0556 15.33545179245338","mean_motion":15.33545179,"eccentricity":0.0001106,"inclination_deg":53.1592,"raan_deg":285.2899,"arg_perigee_deg":86.0573,"mean_anomaly_deg":274.0556,"bstar":3.4143e-5,"rev_number":24533,"period_min":93.900070224146,"perigee_km":464.48825041855,"apogee_km":466.00200654537,"semimajor_km":6843.382128482,"source":"CELESTRAK","updated_at":"2026-09-20T09:00:40.020182Z"}}